Terminal Aerodrome Forecast
Issued by NWS Jackson, KY

Home | Current Version | Previous Version | Text Only | Print | Product List | Glossary On
Versions: 1 2 3 4 5 6 7 8 9 10 11 12 13 14
000
FTUS43 KJKL 211742
TAFJKL
TAF
KJKL 211742Z 2118/2218 31005KT P6SM SCT010 BKN025
     FM212100 VRB03KT P6SM SCT025 SCT035
     FM220600 00000KT 6SM BR SKC
     FM221000 00000KT 1SM BR BKN002
     FM221400 00000KT P6SM BKN008
     FM221500 VRB03KT P6SM FEW015=

USA.gov is the U.S. government's official web portal to all federal, state and local government web resources and services.